OpenBCM V1.08-3-g9b42 (Linux)

Packet Radio Mailbox

OK0NBR

[Sao_Jose_dos_Campo]

 Login: GUEST





  
I0OJJ  > KEPS     10.12.25 11:41l 319 Lines 15156 Bytes #222 (0) @ AMSAT
BID : ORB25343.1
Read: GUEST
Subj: 2Line Orbital Elements 25343.AMSAT
Path: OK0NBR<SR8BBS<SR1BSZ<EA2RCF<I0OJJ
Sent: 251209/0021z @:I0OJJ.ITA.EU [Rome] obcm1.08-11-2-gbfe9
From: I0OJJ @ I0OJJ.ITA.EU (Gustavo)
To:   KEPS @ AMSAT
X-Info: This message was generated automatically


QST de W1STR

AMSAT Orbital Elements for Amateur Satellites in TLE Format
From Orbital Analysis Office
New England Sci-Tech STEM Education Center
Natick MA December 09, 2025
To all radio amateurs


These element sets describe the orbits of various satellites 
in use by the amateur radio community. For details see:
www.amsat.org/keplerian-elements-formats/

A daily update of element sets is available at:
www.amsat.org/tle/daily-bulletin.txt
or without bulletin text:
www.amsat.org/tle/dailytle.txt


AO-07
1 07530U 74089B   25342.59741039 -.00000043  00000-0  22997-4 0  9998
2 07530 101.9966 348.8216 0012344 134.4144 340.0141 12.53694077336634
UO-11
1 14781U 84021B   25342.83155691  .00003025  00000-0  31822-3 0  9999
2 14781  97.7810 305.9206 0009251  92.8766 267.3510 14.90121374228777
AO-27
1 22825U 93061C   25342.73308330  .00000292  00000-0  12848-3 0  9990
2 22825  98.7152  44.9908 0007453 303.0544  56.9922 14.30874743679764
FO-29
1 24278U 96046B   25342.63253236  .00000031  00000-0  69654-4 0  9992
2 24278  98.5466 212.3192 0349038 230.6529 126.3200 13.53262610447397
GO-32
1 25397U 98043D   25342.56228273  .00000208  00000-0  10995-3 0  9998
2 25397  98.9915 325.6780 0002160  63.9120 296.2280 14.24375404424193
ISS
1 25544U 98067A   25342.54239145  .00012445  00000-0  23028-3 0  9993
2 25544  51.6307 163.2617 0003394 220.7658 139.3077 15.49420853542203
NO-44
1 26931U 01043C   25342.47532657  .00000413  00000-0  18529-3 0  9990
2 26931  67.0518  17.5070 0007414 270.2301  89.7952 14.31851502263147
SO-50
1 27607U 02058C   25342.48785313  .00003344  00000-0  41646-3 0  9990
2 27607  64.5545 358.7400 0072039 297.3953  61.9836 14.82362216236187
CO-55
1 27844U 03031E   25342.51517291  .00000727  00000-0  33454-3 0  9997
2 27844  98.6764 348.4727 0010011  25.2499 334.9167 14.24174153164530
CO-57
1 27848U 03031J   25342.54992634  .00000609  00000-0  28693-3 0  9990
2 27848  98.6794 348.3724 0010194  42.1108 318.0852 14.23483005164251
RS-22
1 27939U 03042A   25342.63942056  .00002605  00000-0  41387-3 0  9999
2 27939  98.3368 156.7310 0011895 148.0672 300.6349 14.72954022187494
CO-58
1 28895U 05043F   25342.36280485  .00003312  00000-0  53655-3 0  9992
2 28895  98.2723 129.3668 0015400  91.1728 269.1243 14.71873129 73671
CO-65
1 32785U 08021C   25342.58844606  .00009605  00000-0  64551-3 0  9997
2 32785  97.8092 315.6178 0008221 328.5909  31.4826 15.06966997956464
CO-66
1 32791U 08021J   25342.44211206  .00022146  00000-0  88792-3 0  9991
2 32791  97.7448 327.4395 0000903 254.6399 105.4738 15.25028677958144
RS-30
1 32953U 08025A   25342.84761589 -.00000018  00000-0 -20328-3 0  9990
2 32953  82.5018 113.8438 0019166   9.6022 350.5420 12.43171503796040
SRMSAT
1 37841U 11058D   25342.77451105  .00000572  00000-0  16661-3 0  9991
2 37841  19.9702 131.9502 0011706 269.4480 132.3331 14.11509665730882
ZACUBE-1
1 39417U 13066B   25342.38635268  .00006711  00000-0  54853-3 0  9990
2 39417  97.8077 298.9244 0041692 160.8259 199.4544 14.99022362652125
Delfi-N3xt
1 39428U 13066N   25342.58260228  .00010601  00000-0  99340-3 0  9997
2 39428  97.8340 258.5083 0080910 118.8750 242.0618 14.91722167646175
GOMX-1
1 39430U 13066Q   25342.54112573  .00004103  00000-0  62946-3 0  9997
2 39430  97.6593 189.9295 0129962 330.1282  29.2550 14.68553707641922
LO-74
1 39440U 13066AA  25342.84921937  .00008910  00000-0  85790-3 0  9995
2 39440  97.8705 286.5254 0058372 298.9968  60.5408 14.91904364648592
AO-73
1 39444U 13066AE  25342.80108398  .00012145  00000-0  82511-3 0  9996
2 39444  97.8055 306.0313 0040276 128.6749 231.8092 15.05850035650976
DTUSAT-2
1 40030U 14033W   25342.89670216  .00013367  00000-0  78899-3 0  9997
2 40030  98.0761 324.1464 0008945 151.8332 208.3382 15.11637156623905
EO-80
1 40032U 14033Y   25342.84137287  .00013644  00000-0  80347-3 0  9999
2 40032  98.0640 323.4869 0009645 100.3120 259.9196 15.11710380623878
LILACSAT-2
1 40908U 15049K   25342.59010605  .00019574  00000-0  42290-3 0  9998
2 40908  97.4914   7.8445 0006788 214.3366 145.7445 15.44535441566260
IO-86
1 40931U 15052B   25151.18580175  .00001241  00000-0  78118-4 0  9996
2 40931   6.0006  24.0987 0012733 338.8432  21.1169 14.78805930523159
Horyu-4
1 41340U 16012D   25342.69175786  .00057756  00000-0  98425-3 0  9998
2 41340  30.9953 337.7631 0006742 193.7796 166.2670 15.50047879540928
Lapan A3
1 41603U 16040E   25342.90527707  .00006633  00000-0  22012-3 0  9996
2 41603  97.1430 340.6007 0010123 348.4799  11.6210 15.31506422525676
CAS-2T
1 41847U 16066G   25342.81244852  .00001976  00000-0  28775-3 0  9998
2 41847  98.4036  55.5907 0343533 347.0701  12.1843 14.44117853477319
TechnoSat
1 42829U 17042E   25342.73496516  .00007204  00000-0  53238-3 0  9993
2 42829  97.4037 143.1135 0018653  26.1620 334.0544 15.03361253458071
AO-91
1 43017U 17073E   25342.59920418  .00015113  00000-0  71606-3 0  9991
2 43017  97.4938 208.8895 0159876 264.8088  93.4879 15.08723151436612
S-Net D
1 43186U 18014G   25342.65716181  .00009412  00000-0  51745-3 0  9998
2 43186  97.5487 243.7781 0007733 330.3647  29.7145 15.14274919429907
S-Net B
1 43187U 18014H   25342.66515450  .00009676  00000-0  53220-3 0  9998
2 43187  97.5492 243.7663 0008265 323.8860  36.1812 15.14250878429909
S-Net A
1 43188U 18014J   25342.65688709  .00009437  00000-0  51868-3 0  9997
2 43188  97.5502 243.9338 0008160 325.1879  34.8818 15.14281300429907
S-Net C
1 43189U 18014K   25342.66810630  .00009792  00000-0  53843-3 0  9998
2 43189  97.5517 243.9898 0009401 315.1066  44.9404 15.14246230428456
Ten-Koh
1 43677U 18084G   25342.51407439  .00005390  00000-0  41828-3 0  9990
2 43677  98.0741 161.9631 0009423  35.2129 324.9715 15.01776383387533
PO-101
1 43678U 18084H   25342.58131907  .00004400  00000-0  36440-3 0  9997
2 43678  98.1024 165.8773 0007567  56.5500 303.6444 14.99402787387640
QO-100
1 43700U 18090A   25342.57195069  .00000147  00000-0  00000-0 0  9992
2 43700   0.0158 292.0450 0001326 339.7730  37.5004  1.00272215 25765
MinXSS-2
1 43758U 18099A   25342.64665642  .00031139  00000-0  93911-3 0  9992
2 43758  97.4799  49.9565 0008887 227.6966 132.3524 15.34205139384795
AO-95
1 43770U 18099N   25342.65045050  .00016490  00000-0  72931-3 0  9994
2 43770  97.4676  38.9631 0008547 302.7294  57.3118 15.21731537384198
SNUSat 2
1 43782U 18099AA  25342.11102525  .00012132  00000-0  59627-3 0  9995
2 43782  97.4352  33.5967 0009851 240.6785 119.3465 15.18144125384000
SnugLite
1 43784U 18099AC  25342.63864828  .00016573  00000-0  72527-3 0  9992
2 43784  97.4167  34.1479 0002007 221.5854 138.5230 15.22120878384289
ITASat 1
1 43786U 18099AE  25342.73769941  .00010433  00000-0  54574-3 0  9996
2 43786  97.4321  33.1324 0011991 299.5716  60.4321 15.15975183384020
EAGLET 1
1 43790U 18099AJ  25342.66543240  .00006965  00000-0  41968-3 0  9993
2 43790  97.4524  32.3075 0009900 286.2045  73.8096 15.11052555383547
ESEO
1 43792U 18099AL  25342.68841205  .00002938  00000-0  21979-3 0  9995
2 43792  97.4227  23.0390 0010688 263.1438  96.8572 15.03453599383178
JO-97
1 43803U 18099AX  25342.68653692  .00022076  00000-0  84291-3 0  9990
2 43803  97.4417  40.5158 0005630 216.8864 143.1988 15.26643167384497
Suomi 100
1 43804U 18099AY  25342.64834182  .00018201  00000-0  77148-3 0  9990
2 43804  97.4485  39.1406 0010093 227.8884 132.1496 15.23144967384365
ISAT
1 43879U 18111D   25342.77743632  .00048693  00000-0  11619-2 0  9998
2 43879  97.5910 262.3180 0003556 280.9246  79.1600 15.41388176381634
UWE-4
1 43880U 18111E   25342.52445728  .00030773  00000-0  93168-3 0  9998
2 43880  97.5854 258.9326 0007776 297.8489  62.1965 15.34094666381434
Sparrow
1 43881U 18111F   25342.76779927  .00053995  00000-0  11955-2 0  9990
2 43881  97.6091 266.0383 0003742 348.4990  11.6171 15.43606238381758
Prox-1
1 44339U 19036A   25342.20606444  .00017092  00000-0  19235-2 0  9995
2 44339  23.9970 304.7939 0006259 349.6666  10.3703 14.85003951344991
Taurus 1
1 44530U 19059C   25342.88906190  .00012303  00000-0  21009-2 0  9990
2 44530  98.6228 131.5301 0009043 186.2663 173.8429 14.69052814330678
Duchifat 3
1 44854U 19089C   25342.83480616  .09794280  36047-5  11773-2 0  9999
2 44854  36.9155 249.5046 0006919 243.1769 116.8309 16.35254048331523
TO-108
1 44881U 19093C   25342.86261605  .00000946  00000-0  11397-3 0  9990
2 44881  97.7764  54.5808 0013712 359.1045   1.0143 14.86087585323142
FloripaSat 1
1 44885U 19093G   25342.84458983  .00009611  00000-0  75263-3 0  9999
2 44885  97.8046  71.0193 0010872 349.7256  10.3743 15.01185273324066
RS-44
1 44909U 19096E   25342.79227906  .00000040  00000-0  11886-3 0  9990
2 44909  82.5205 106.2314 0216901 229.3448 128.8620 12.79745928277993
SALSAT
1 46495U 20068K   25342.53244303  .00011971  00000-0  46490-3 0  9999
2 46495  97.8781 329.5777 0008725 247.3688 112.6627 15.26213479286247
CSS (TIANHE-1)
1 48274U 21035A   25342.61491639  .00028320  00000-0  35728-3 0  9994
2 48274  41.4682  41.7451 0009131 357.4459   2.6332 15.58905517263389
TUBIN
1 48900U 21059X   25342.81125991  .00929248  50705-3  97607-3 0  9996
2 48900  97.6695 170.6540 0003754 278.1354  81.9503 16.10508827248690
CUTE
1 49263U 21088D   25342.47291211  .00043921  00000-0  57945-3 0  9998
2 49263  97.4354  65.1317 0004450 290.4854  69.5924 15.58269646232639
TeikyoSat 4
1 49396U 21102B   25342.82144904  .00003946  00000-0  25576-3 0  9995
2 49396  97.3902  14.5680 0010996 222.2266 137.8117 15.08618940224013
Z-Sat
1 49399U 21102E   25342.88390712  .00004809  00000-0  25025-3 0  9992
2 49399  97.3581  18.9426 0016924 185.1530 174.9532 15.16374592224589
